Content
SEND FEEDBACK

Mexico Flag

MORELIA, MICHOACAN


Home > North America > Mexico > Michoacan
Elevation: 6275 feet     Latitude: 19 42N     Longitude: 101 11W

WEATHER
 
SELECT A DAY
Number of Records: 167,776;   Date Range: 1/1/95 - 3/22/16
 
SHARE

PRINT THIS DATA

[ ← Previous Day ]
WEATHER ALMANAC - JANUARY 3, 2013
[ Next Day → ]
[ °C ]   °F
Weather ElementAverageHighLow
Temperature58.8 °F75 °F (2:50 pm)44.6 °F (4:53 am)
Dewpoint47.2 °F54 °F (11:50 am)42.8 °F (4:53 am)
Humidity66.7 %100 % (5:50 am)30 % (2:50 pm)
Barometer30.09 in30.27 in (9:23 am)29.82 in (2:45 pm)
Wind Speed4.6 mph13.8 mph (11:52 am)
Weather ElementAverage
Visibility7.3 mi
Wind DirectionESE (106.3 °)

Weather ElementTotal
Precipitation---
Heating Degree Days5.2 (Base 65)
Growing Degree Days9.8 (Base 50)
Averaged from 35 records on January 3, 2013
WEATHER CONDITIONS BREAKOUT
WIND DIRECTION BREAKOUT
WEATHER BY HOUR - JANUARY 3, 2013
[ °C ]   °F
Local TimeTemperatureDewpointHumidityBarometerVisibilityWind DirectionWind SpeedGust SpeedPrecipitationEventsConditions
1:43 AM50.0 °F46.4 °F87 %30.22 in7.0 miCalmMostly Cloudy
2:45 AM50.0 °F46.4 °F87 %29.92 in7.0 miCalmScattered Clouds
2:55 AM50.0 °F47.0 °F85 %29.95 in5.0 miSouth (180°)6.7 mph
4:53 AM44.6 °F42.8 °F93 %30.21 in7.0 miCalmMostly Cloudy
5:50 AM44.6 °F44.6 °F100 %29.94 in7.0 miCalmMostly Cloudy
5:55 AM48.0 °F46.0 °F90 %29.99 in5.0 miSouth (180°)4.5 mph
6:45 AM44.6 °F42.8 °F93 %30.21 in7.0 miCalmMostly Cloudy
7:42 AM44.6 °F42.8 °F93 %30.23 in8.0 miCalmScattered Clouds
8:15 AM48.2 °F44.6 °F87 %30.25 in8.0 miCalmScattered Clouds
8:37 AM51.8 °F46.4 °F82 %30.26 in8.0 miCalmScattered Clouds
8:50 AM49.0 °F47.0 °F92 %30.08 in7.0 miSW (230°)2.2 mph
8:53 AM53.6 °F48.2 °F82 %29.93 in8.0 miCalmScattered Clouds
9:23 AM57.2 °F48.2 °F72 %30.27 in8.0 miCalmPartly Cloudy
9:43 AM59.0 °F48.2 °F67 %30.27 in8.0 miCalmPartly Cloudy
10:27 AM62.6 °F48.2 °F59 %30.26 in8.0 miCalmPartly Cloudy
10:46 AM64.4 °F50.0 °F59 %30.25 in8.0 miCalmScattered Clouds
11:39 AM68.0 °F50.0 °F52 %30.23 in8.0 miSE (140°)4.6 mphScattered Clouds
11:50 AM66.0 °F54.0 °F57 %30.02 in7.0 miSouth (180°)2.2 mphPartly Cloudy
11:52 AM69.8 °F48.2 °F46 %29.83 in8.0 miSouth (170°)13.8 mphMostly Cloudy
12:55 PM71.6 °F48.2 °F43 %30.18 in8.0 miSouth (180°)11.5 mphScattered Clouds
1:45 PM71.6 °F48.2 °F43 %30.16 in8.0 miSSE (160°)11.5 mphMostly Cloudy
2:45 PM73.4 °F48.2 °F41 %29.82 in8.0 miSouth (180°)12.7 mphMostly Cloudy
2:50 PM75.0 °F50.0 °F30 %29.86 in7.0 miSSW (210°)4.5 mphPartly Cloudy
3:53 PM73.4 °F46.4 °F38 %30.14 in8.0 miSSE (160°)13.8 mphScattered Clouds
4:40 PM71.6 °F46.4 °F41 %30.14 in8.0 miSSE (160°)10.4 mphScattered Clouds
5:45 PM68.0 °F44.6 °F43 %29.88 in8.0 miSouth (180°)13.8 mphScattered Clouds
5:50 PM67.0 °F49.0 °F41 %29.82 in7.0 miSSE (160°)4.5 mphPartly Cloudy
6:31 PM62.6 °F48.2 °F59 %30.18 in8.0 miSouth (180°)5.8 mphPartly Cloudy
6:51 PM62.6 °F48.2 °F59 %30.18 in8.0 miSSW (200°)12.7 mphClear
7:47 PM59.0 °F48.2 °F67 %30.21 in7.0 miWest (260°)6.9 mphClear
8:43 PM59.0 °F48.2 °F67 %29.94 in7.0 miSW (230°)9.2 mphClear
8:50 PM59.0 °F47.0 °F53 %29.84 in6.0 miSouth (180°)4.5 mph
9:45 PM53.6 °F46.4 °F77 %30.25 in7.0 miCalmClear
10:40 PM51.8 °F44.6 °F76 %30.26 in7.0 miCalmClear
11:50 PM54.0 °F48.0 °F72 %29.91 in5.0 miSSW (200°)4.5 mphPartly Cloudy
Hourly data recorded from MMMM, located miles away from Morelia, Michoacan




STORIES FROM OUR PARTNERS